This is the latest recevied weather packets stored in our database for station/object KD0JCP-10. If no packets are shown the sender has not sent any weather packets the latest 10 day(s).
| Time | Temp. | Humidity | Pressure | Rain* | Wind** | Luminosity | Snow |
|---|---|---|---|---|---|---|---|
| 1777921575 | 26.67° C | 30% | 1002.6 hPa | 0 mm | - | - | - |
| 1777921275 | 26.67° C | 29% | 1002.5 hPa | 0 mm | - | - | - |
| 1777920976 | 26.67° C | - | 1002.5 hPa | 0 mm | - | - | - |
| 1777920675 | 26.67° C | 29% | 1002.5 hPa | 0 mm | - | - | - |
| 1777920376 | 27.22° C | 28% | 1002.5 hPa | 0 mm | - | - | - |
| 1777920076 | 27.22° C | 26% | 1002.4 hPa | 0 mm | - | - | - |
| 1777919776 | 27.22° C | 27% | 1002.5 hPa | 0 mm | - | - | - |
| 1777919475 | 26.67° C | 25% | 1002.4 hPa | 0 mm | - | - | - |
| 1777919175 | 26.67° C | 22% | 1002.3 hPa | 0 mm | - | - | - |
| 1777918875 | 26.67° C | 23% | 1002.4 hPa | 0 mm | - | - | - |
| 1777918576 | 27.22° C | 24% | 1002.5 hPa | 0 mm | - | - | - |
| 1777918276 | 26.67° C | 26% | 1002.6 hPa | 0 mm | - | - | - |
| 1777917976 | 26.67° C | 24% | 1002.6 hPa | 0 mm | - | - | - |
| 1777917676 | 26.67° C | 24% | 1002.7 hPa | 0 mm | - | - | - |
| 1777917376 | 26.67° C | 23% | 1002.4 hPa | 0 mm | - | - | - |
| 1777917076 | 26.67° C | 21% | 1002.6 hPa | 0 mm | - | - | - |
| 1777916776 | 26.67° C | 21% | 1002.7 hPa | 0 mm | - | - | - |
| 1777916476 | 26.67° C | 23% | 1002.7 hPa | 0 mm | - | - | - |
| 1777916176 | 26.67° C | 22% | 1002.8 hPa | 0 mm | - | - | - |
| 1777915876 | 26.67° C | 20% | 1002.7 hPa | 0 mm | - | - | - |
| 1777915576 | 26.67° C | 21% | 1002.9 hPa | 0 mm | - | - | - |
| 1777915276 | 26.67° C | 21% | 1002.8 hPa | 0 mm | - | - | - |
| 1777914976 | 26.11° C | 21% | 1002.8 hPa | 0 mm | - | - | - |
| 1777914676 | 26.11° C | 21% | 1002.9 hPa | 0 mm | - | - | - |
| 1777914376 | 26.11° C | 23% | 1002.9 hPa | 0 mm | - | - | - |
* Rain latest hour (hover to see other rain measurements)
** Current wind speed in m/s (hover to see current wind gust speed)